Stations météo

Publicité
Trappes, France (7145): Température de l'air & dewpoint: 16.01.2019 02:00:00 - 22.01.2019 02:00:00 (CET)Trappes, France (7145): Température de l'air 5cm: 16.01.2019 02:00:00 - 22.01.2019 02:00:00 (CET)Trappes, France (7145): Température de l'air -20cm & Température de l'air -100cm: 16.01.2019 02:00:00 - 22.01.2019 02:00:00 (CET)Trappes, France (7145): Vitesse du vent & gusts: 16.01.2019 02:00:00 - 22.01.2019 02:00:00 (CET)Trappes, France (7145): Direction du vent: 16.01.2019 02:00:00 - 22.01.2019 02:00:00 (CET)Trappes, France (7145): reduced air pressure: 16.01.2019 02:00:00 - 22.01.2019 02:00:00 (CET)Trappes, France (7145): visibility: 16.01.2019 02:00:00 - 22.01.2019 02:00:00 (CET)Trappes, France (7145): Ensoleillement: 16.01.2019 02:00:00 - 22.01.2019 02:00:00 (CET)Trappes, France (7145): Quantités de précipitations: 16.01.2019 02:00:00 - 22.01.2019 02:00:00 (CET)
Date & Time tt [°C] td [°C] tt 5cm [°C] tt -20cm [°C] tt -100cm [°C] ff [km/h] ff [knt] fx [km/h] fx [knt] dd ppp [hPa] vv [km] sd [min] rr [mm]
22.01.2019 02:00:00 -2,7 -3,2 -2,9 2,9 7,9 12 7 28 15 S 1017,2 2,5 0 0,0
22.01.2019 01:00:00 -2,5 -3,1 -2,5 2,9 7,9 9 5 23 13 S 1018,3 2,2 0 0,0
22.01.2019 00:00:00 -2,5 -2,9 -3,4 3,0 7,9 9 5 21 11 SSW 1019,2 1,7 0 0,0
21.01.2019 23:00:00 -2,4 -3,1 -4,2 3,0 7,9 6 4 15 8 SSW 1019,5 3,3 0 0,0
21.01.2019 22:00:00 -2,3 -3,4 -5,1 3,1 7,9 5 3 9 5 S 1020,5 4,5 0 0,0
21.01.2019 21:00:00 -2,0 -3,4 -5,1 3,1 7,9 5 3 8 4 SSW 1021,3 5 0 0,0
21.01.2019 20:00:00 -1,6 -3,2 -6,5 3,2 7,9 4 2 8 4 WSW 1022,0 6 0 0,0
21.01.2019 19:00:00 -2,0 -3,3 -6,4 3,2 7,9 0 0 0 0 N 1022,2 5 0 0,0
21.01.2019 18:00:00 -0,1 -3,3 -4,0 3,2 7,9 0 0 8 4 N 1021,9 9 15 0,0
21.01.2019 17:00:00 1,6 -3,1 2,4 3,2 7,9 4 2 8 5 WNW 1022,2 12 60 0,0
21.01.2019 16:00:00 2,3 -3,4 7,0 3,2 7,9 2 1 9 5 NE 1022,4 13 60 0,0
21.01.2019 15:00:00 2,4 -3,1 7,1 3,2 8,0 2 1 8 4 N 1022,9 13 60 0,0
21.01.2019 14:00:00 1,6 -3,7 6,1 3,2 8,0 4 2 10 6 E 1023,5 13 60 0,0
21.01.2019 13:00:00 0,5 -2,9 2,9 3,3 8,0 4 2 14 8 NNE 1024,2 10 60 0,0
21.01.2019 12:00:00 -0,9 -3,4 0,9 3,3 8,0 7 4 15 8 NNE 1024,8 8 60 0,0
21.01.2019 11:00:00 -2,3 -3,7 -2,2 3,4 8,0 9 5 15 8 N 1025,2 4,7 56 0,0
21.01.2019 10:00:00 -3,0 -3,8 -5,3 3,5 8,0 8 4 15 8 N 1024,5 3,5 36 0,0
21.01.2019 09:00:00 -3,7 -4,4 -6,0 3,6 8,0 4 2 11 6 N 1024,1 3,3 0 0,0
21.01.2019 08:00:00 -3,6 -4,4 -5,6 3,6 8,0 5 3 10 5 N 1023,8 3,5 0 0,0
21.01.2019 07:00:00 -3,2 -4,2 -4,8 3,7 8,0 6 4 19 11 N 1023,5 4,4 0 0,0
21.01.2019 06:00:00 -2,9 -4,0 -4,3 3,8 8,0 6 3 14 8 NNE 1023,0 4,9 0 0,0
21.01.2019 05:00:00 -2,4 -3,5 -3,9 3,9 8,0 9 5 18 10 N 1023,0 5 0 0,0
21.01.2019 04:00:00 -2,3 -3,6 -4,3 4,0 8,0 6 3 14 8 N 1022,7 5 0 0,0
21.01.2019 03:00:00 -2,2 -3,3 -4,8 4,1 8,0 6 3 10 5 NNW 1022,8 6 0 0,0
21.01.2019 02:00:00 -1,8 -3,2 -4,8 4,2 8,1 4 2 8 5 NW 1022,5 7 0 0,0
21.01.2019 01:00:00 -1,2 -2,9 -3,6 4,3 8,1 4 2 15 8 NNW 1022,3 8 0 0,0
21.01.2019 00:00:00 -0,5 -2,4 -1,7 4,3 8,1 6 4 14 7 NNE 1021,8 8 0 0,0
20.01.2019 23:00:00 0,1 -1,5 -0,9 4,3 8,1 7 4 16 9 NNE 1021,4 7 0 0,0
20.01.2019 22:00:00 0,9 -0,7 0,6 4,3 8,1 8 5 22 12 NNE 1020,8 8 0 0,0
20.01.2019 21:00:00 1,2 -0,4 0,4 4,4 8,1 15 8 25 13 N 1020,3 7 0 0,0
20.01.2019 20:00:00 1,7 0,5 1,7 4,4 8,1 8 4 21 12 N 1019,4 5 0 0,0
20.01.2019 19:00:00 1,7 1,0 1,6 4,3 8,1 8 4 19 10 NNE 1018,5 3,5 0 0,0
20.01.2019 18:00:00 1,7 1,1 1,7 4,3 8,1 8 4 18 10 NNE 1017,8 4,4 0 0,0
20.01.2019 17:00:00 1,6 1,2 1,8 4,3 8,1 7 4 17 9 N 1017,1 3,7 0 0,0
20.01.2019 16:00:00 1,7 1,4 2,0 4,3 8,1 9 5 19 11 N 1016,4 3,8 0 0,0
20.01.2019 15:00:00 1,8 1,5 2,1 4,2 8,1 9 5 19 11 N 1015,7 3,6 0 0,0
20.01.2019 14:00:00 1,8 1,7 2,3 4,1 8,1 9 5 18 10 N 1015,4 3,9 0 0,0
20.01.2019 13:00:00 1,9 1,8 2,5 4,1 8,2 9 5 18 10 NNE 1015,3 2,9 0 0,0
20.01.2019 12:00:00 1,9 1,9 2,3 4,1 8,2 9 5 18 10 NNE 1015,0 2,1 0 0,0
20.01.2019 11:00:00 1,8 1,8 2,1 4,0 8,2 7 4 16 9 NNE 1014,3 2,6 0 0,0
20.01.2019 10:00:00 1,7 1,7 1,8 4,0 8,2 7 4 16 9 NNE 1013,4 0,4 0 0,0
20.01.2019 09:00:00 1,7 1,7 1,8 4,0 8,2 6 3 12 7 NNE 1012,5 1,8 0 0,2
20.01.2019 08:00:00 1,9 1,9 2,0 4,0 8,2 5 3 12 7 NNE 1011,6 0,3 0 0,0
20.01.2019 07:00:00 2,3 2,3 2,2 3,9 8,2 4 2 11 6 NNE 1011,0 0,6 0 0,0
20.01.2019 06:00:00 2,1 2,1 2,0 3,9 8,2 4 2 7 4 NE 1010,5 2,0 0 0,0
20.01.2019 05:00:00 1,9 1,9 1,9 3,9 8,2 3 2 7 4 E 1010,4 1,1 0 0,0
20.01.2019 04:00:00 1,8 1,8 1,8 3,8 8,2 5 3 9 5 E 1010,4 1,4 0 0,2
20.01.2019 03:00:00 1,8 1,8 1,8 3,8 8,2 4 2 11 6 ESE 1010,1 0,6 0 0,2
20.01.2019 02:00:00 1,9 1,9 1,9 3,8 8,3 4 2 9 5 SE 1009,9 0,3 0 0,0
20.01.2019 01:00:00 1,8 1,7 1,8 3,7 8,3 4 2 9 5 ESE 1009,9 1,1 0 0,0
20.01.2019 00:00:00 1,7 1,6 1,6 3,7 8,3 4 2 11 6 SSE 1009,8 3,5 0 0,0
19.01.2019 23:00:00 1,7 1,6 1,6 3,7 8,3 4 2 15 8 SSE 1009,6 4,4 0 0,0
19.01.2019 22:00:00 1,6 1,5 1,5 3,7 8,3 8 5 15 8 SE 1009,4 4,0 0 1,2
19.01.2019 21:00:00 1,5 1,4 1,5 3,6 8,3 7 4 15 8 SE 1009,4 2,6 0 0,2
19.01.2019 20:00:00 1,4 1,3 1,2 3,6 8,3 5 3 17 9 SE 1009,4 2,2 0 0,2
19.01.2019 19:00:00 1,1 1,0 1,0 3,6 8,3 9 5 16 9 SE 1009,3 2,1 0 0,0
19.01.2019 18:00:00 0,9 0,8 0,8 3,5 8,4 8 5 17 9 SE 1009,3 1,3 0 0,0
19.01.2019 17:00:00 0,7 0,6 0,8 3,5 8,4 7 4 16 8 SE 1009,5 0,8 0 0,0
19.01.2019 16:00:00 0,4 0,3 0,4 3,4 8,3 8 4 19 10 SE 1009,5 1,2 0 0,0
19.01.2019 15:00:00 0,1 -0,3 0,1 3,4 8,4 9 5 19 11 SE 1010,1 2,6 0 0,0
19.01.2019 14:00:00 -0,2 -0,8 0,0 3,4 8,4 7 4 19 10 SSE 1010,9 4,9 0 0,0
19.01.2019 13:00:00 -0,2 -0,9 -0,2 3,4 8,4 7 4 24 13 SE 1011,5 4,4 0 0,0
19.01.2019 12:00:00 -0,6 -1,7 -0,4 3,5 8,4 11 6 23 13 SE 1012,3 7 0 0,0
19.01.2019 11:00:00 -1,0 -2,1 -1,1 3,5 8,4 9 5 20 11 ESE 1012,6 6 1 0,0
19.01.2019 10:00:00 -1,7 -2,8 -2,1 3,6 8,4 9 5 21 11 SE 1012,7 14 0 0,0
19.01.2019 09:00:00 -2,1 -2,9 -2,7 3,6 8,4 10 5 22 12 SE 1012,9 12 0 0,0
19.01.2019 08:00:00 -2,4 -3,2 -2,8 3,7 8,4 10 5 19 10 SE 1013,1 11 0 0,0
19.01.2019 07:00:00 -2,1 -3,1 -2,5 3,8 8,4 9 5 18 10 SE 1013,3 14 0 0,0
19.01.2019 06:00:00 -2,1 -2,9 -3,0 3,8 8,4 8 5 15 8 SE 1013,8 14 0 0,0
19.01.2019 05:00:00 -2,0 -3,0 -2,9 3,9 8,4 8 4 13 7 SE 1014,5 15 0 0,0
19.01.2019 04:00:00 -1,8 -2,8 -2,8 3,9 8,4 8 4 13 7 SE 1015,0 15 0 0,0
19.01.2019 03:00:00 -1,6 -2,7 -2,5 4,0 8,5 6 3 18 10 SSE 1015,5 17 0 0,0
19.01.2019 02:00:00 -1,2 -2,5 -2,1 4,1 8,5 10 5 20 11 SE 1015,9 17 0 0,0
19.01.2019 01:00:00 -1,0 -2,1 -1,9 4,1 8,5 8 4 16 9 SE 1016,6 14 0 0,0
19.01.2019 00:00:00 -0,7 -1,7 -1,5 4,3 8,5 8 5 18 10 SE 1016,9 11 0 0,0
18.01.2019 23:00:00 -0,4 -1,5 -1,5 4,3 8,5 5 3 15 8 SSE 1017,1 12 0 0,0
18.01.2019 22:00:00 0,0 -1,6 -0,9 4,4 8,5 6 3 16 9 SSE 1017,2 14 0 0,0
18.01.2019 21:00:00 0,7 -1,2 -0,4 4,5 8,5 9 5 21 11 SE 1017,3 15 0 0,0
18.01.2019 20:00:00 0,9 -1,7 -0,7 4,5 8,5 8 4 13 7 SE 1017,7 17 0 0,0
18.01.2019 19:00:00 0,9 -2,5 -0,6 4,5 8,5 6 3 10 6 SE 1017,9 20 0 0,0
18.01.2019 18:00:00 1,7 -2,3 -0,2 4,5 8,5 3 2 8 5 SSE 1018,4 20 14 0,0
18.01.2019 17:00:00 3,0 -1,9 2,4 4,5 8,5 5 3 15 8 S 1018,5 20 35 0,0
18.01.2019 16:00:00 4,0 -2,0 5,8 4,4 8,5 8 4 22 12 SSE 1018,5 20 60 0,0
18.01.2019 15:00:00 4,3 -1,7 7,5 4,3 8,5 10 5 17 9 S 1018,8 20 60 0,0
18.01.2019 14:00:00 4,1 -2,1 7,5 4,3 8,5 8 4 18 10 S 1019,2 20 60 0,0
18.01.2019 13:00:00 4,0 -1,4 6,5 4,3 8,5 7 4 18 10 SSE 1020,1 19 60 0,0
18.01.2019 12:00:00 3,0 -1,4 2,9 4,4 8,5 7 4 11 6 S 1020,9 20 49 0,0
18.01.2019 11:00:00 1,8 -1,3 0,1 4,5 8,5 3 1 6 3 SSE 1020,9 18 32 0,0
18.01.2019 10:00:00 -0,8 -1,8 -4,6 4,5 8,5 0 0 4 2 N 1020,7 13 4 0,0
18.01.2019 09:00:00 -1,8 -2,5 -5,2 4,6 8,5 0 0 8 4 N 1020,7 11 0 0,0
18.01.2019 08:00:00 -1,6 -2,2 -4,6 4,7 8,5 0 0 4 2 N 1020,6 15 0 0,0
18.01.2019 07:00:00 -2,3 -2,9 -5,7 4,8 8,5 0 0 4 2 N 1020,9 19 0 0,0
18.01.2019 06:00:00 -1,9 -2,6 -5,7 5,0 8,5 2 1 4 2 W 1020,9 19 0 0,0
18.01.2019 05:00:00 -1,6 -2,6 -5,1 5,0 8,5 0 0 9 5 N 1020,6 19 0 0,0
18.01.2019 04:00:00 -1,1 -2,2 -4,0 5,2 8,5 2 1 6 3 W 1020,7 20 0 0,0
18.01.2019 03:00:00 -0,3 -2,4 -2,2 5,3 8,5 4 2 12 6 W 1020,6 20 0 0,0
18.01.2019 02:00:00 -0,6 -2,3 -2,8 5,4 8,5 6 3 11 6 W 1020,7 20 0 0,0
18.01.2019 01:00:00 -0,1 -2,2 -4,1 5,5 8,6 6 3 10 6 W 1020,5 20 0 0,0
18.01.2019 00:00:00 -0,1 -2,3 -3,1 5,7 8,5 4 2 9 5 W 1020,2 20 0 0,0
17.01.2019 23:00:00 0,2 -2,2 -1,8 5,8 8,5 5 3 15 8 NNW 1019,7 20 0 0,0
17.01.2019 22:00:00 0,6 -1,8 -2,6 5,9 8,5 8 4 14 7 NW 1019,3 20 0 0,0
17.01.2019 21:00:00 0,8 -2,1 -1,7 6,0 8,5 5 3 14 7 NNW 1018,7 20 0 0,0
17.01.2019 20:00:00 1,5 -1,4 -0,6 6,1 8,6 7 4 14 8 WNW 1017,8 20 0 0,0
17.01.2019 19:00:00 2,0 -0,8 0,1 6,2 8,6 8 5 17 9 NNW 1016,8 20 0 0,0
17.01.2019 18:00:00 3,1 1,0 1,4 6,2 8,6 10 5 24 13 NNW 1015,9 20 0 0,0
17.01.2019 17:00:00 4,0 1,7 3,4 6,2 8,6 12 6 24 13 NW 1014,8 20 0 0,2
17.01.2019 16:00:00 4,4 2,7 3,8 6,1 8,6 10 5 34 18 NNW 1013,8 20 0 0,2
17.01.2019 15:00:00 4,0 2,8 3,3 6,1 8,6 11 6 40 22 WNW 1013,1 20 0 2,4
17.01.2019 14:00:00 5,9 2,7 4,9 6,0 8,6 10 6 36 20 WNW 1012,4 8 18 0,2
17.01.2019 13:00:00 7,1 1,8 6,8 5,9 8,6 20 11 35 19 W 1011,8 20 31 0,0
17.01.2019 12:00:00 6,1 2,9 5,6 5,9 8,6 13 7 36 19 W 1011,8 20 10 0,0
17.01.2019 11:00:00 5,4 2,6 5,1 5,9 8,6 17 9 37 20 W 1011,1 20 0 0,0
17.01.2019 10:00:00 5,2 2,5 3,8 6,0 8,6 17 9 41 22 W 1010,0 20 6 0,0
17.01.2019 09:00:00 4,9 2,9 3,8 6,0 8,6 19 10 37 20 WSW 1008,8 20 0 0,0
17.01.2019 08:00:00 4,6 2,9 3,4 6,0 8,6 18 10 35 19 WSW 1008,1 20 0 0,0
17.01.2019 07:00:00 4,5 3,2 3,5 6,1 8,6 16 9 29 15 SW 1007,6 20 0 0,0
17.01.2019 06:00:00 4,6 3,4 3,3 6,1 8,6 13 7 28 15 WSW 1007,7 20 0 0,0
17.01.2019 05:00:00 4,6 3,4 3,4 6,1 8,6 15 8 30 16 SW 1007,8 20 0 0,0
17.01.2019 04:00:00 5,3 4,1 4,2 6,2 8,6 10 6 21 12 WSW 1008,0 20 0 0,0
17.01.2019 03:00:00 5,4 4,4 4,8 6,1 8,6 8 4 13 7 WSW 1007,8 20 0 0,2
17.01.2019 02:00:00 5,8 5,1 5,4 6,1 8,6 9 5 26 14 WNW 1007,7 10 0 0,8
17.01.2019 01:00:00 5,8 5,2 5,3 6,1 8,6 14 8 32 17 SW 1007,5 6 0 0,8
17.01.2019 00:00:00 5,6 4,9 4,8 6,1 8,6 19 10 38 20 SW 1007,8 11 0 0,4
16.01.2019 23:00:00 5,2 4,3 4,6 6,1 8,6 16 9 31 17 SW 1008,2 3,1 0 0,4
16.01.2019 22:00:00 5,0 3,8 4,4 6,0 8,6 16 9 38 21 SSW 1008,5 8 0 0,0
16.01.2019 21:00:00 5,4 2,6 4,9 6,1 8,6 21 11 41 22 SW 1008,5 20 0 0,0
16.01.2019 20:00:00 5,4 1,9 5,2 6,1 8,6 15 8 40 21 SSW 1008,8 20 0 0,0
16.01.2019 19:00:00 5,5 1,8 5,3 6,1 8,6 18 10 35 19 SSW 1008,9 20 0 0,0
16.01.2019 18:00:00 5,7 1,2 5,3 6,0 8,6 16 9 31 17 SSW 1009,3 20 0 0,0
16.01.2019 17:00:00 5,7 1,0 5,5 6,0 8,6 14 8 30 16 SW 1009,8 20 0 0,0
16.01.2019 16:00:00 5,9 1,2 5,9 5,9 8,6 13 7 29 16 SW 1010,2 20 1 0,0
16.01.2019 15:00:00 5,8 1,1 6,1 5,8 8,6 19 11 40 22 WSW 1010,5 20 26 0,0
16.01.2019 14:00:00 6,2 1,1 6,8 5,8 8,6 14 8 27 14 SW 1011,1 20 53 0,0
16.01.2019 13:00:00 5,7 1,0 7,1 5,8 8,6 9 5 18 10 SSW 1012,1 19 60 0,0
16.01.2019 12:00:00 4,5 0,4 5,1 5,8 8,6 9 5 19 10 SW 1013,5 20 60 0,0
16.01.2019 11:00:00 3,4 0,1 1,5 5,9 8,6 9 5 16 9 SW 1014,0 20 54 0,0
16.01.2019 10:00:00 1,5 -0,4 0,0 6,0 8,6 5 3 10 5 SW 1014,7 20 0 0,0
16.01.2019 09:00:00 1,0 -0,6 -2,0 6,1 8,6 4 2 11 6 SSW 1014,9 20 0 0,0
16.01.2019 08:00:00 0,5 -0,6 -1,4 6,3 8,6 3 2 11 6 SSW 1015,3 20 0 0,0
16.01.2019 07:00:00 0,7 -0,5 -2,0 6,4 8,6 3 2 8 4 S 1015,7 20 0 0,0
16.01.2019 06:00:00 1,1 -0,2 -2,4 6,6 8,6 4 2 7 4 S 1016,3 20 0 0,0
16.01.2019 05:00:00 1,6 0,0 -1,4 6,7 8,6 3 2 7 4 S 1016,9 20 0 0,0
16.01.2019 04:00:00 1,6 0,0 -1,5 6,8 8,6 3 2 6 3 SSW 1017,8 20 0 0,0
16.01.2019 03:00:00 2,7 0,6 -0,2 6,9 8,6 3 2 6 4 SSW 1018,4 20 0 0,0
16.01.2019 02:00:00 3,5 0,5 1,1 6,9 8,5 4 2 13 7 SSW 1019,0 20 0 0,0

tt = Température de l'air
td = dewpoint
tt 5cm = Température de l'air 5cm
tt -20cm = Température de l'air -20cm
tt -100cm = Température de l'air -100cm
ff = Vitesse du vent
fx = gusts
dd = Direction du vent
ppp = reduced air pressure
vv = visibility
sd = Ensoleillement
rr = Quantités de précipitations

stations d'obs. à proximité